• In Hungary
  • List of Countries
  • For 7 days
  • Water Temperature
  • Satellite Maps
  • Weather Map
  • News
  • Weather Widgets
  • user-avatar
    Login

    Hourly Weather San Fernando

    Today, 14 November, Wednesday

    Time Temperature Precipitation Wind Pressure Humidity
    00:00 +16°C° 0 mm 5 mps 763 mmHg 68%
    01:00 +16°C° 0 mm 5 mps 762 mmHg 68%
    02:00 +16°C° 0 mm 6 mps 762 mmHg 68%
    03:00 +16°C° 0 mm 6 mps 762 mmHg 68%
    04:00 +16°C° 0.1 mm 6 mps 761 mmHg 69%
    05:00 +16°C° 0.1 mm 6 mps 761 mmHg 70%
    06:00 +15°C° 0.1 mm 6 mps 761 mmHg 72%
    07:00 +16°C° 0 mm 6 mps 761 mmHg 69%
    08:00 +17°C° 0 mm 6 mps 761 mmHg 66%
    09:00 +18°C° 0 mm 7 mps 761 mmHg 63%
    10:00 +21°C° 0 mm 7 mps 761 mmHg 58%
    11:00 +22°C° 0 mm 7 mps 760 mmHg 54%
    12:00 +23°C° 0 mm 7 mps 760 mmHg 49%
    13:00 +23°C° 0 mm 7 mps 760 mmHg 49%
    14:00 +23°C° 0 mm 7 mps 759 mmHg 49%
    15:00 +23°C° 0 mm 7 mps 759 mmHg 49%
    16:00 +22°C° 0 mm 7 mps 759 mmHg 54%
    17:00 +21°C° 0 mm 6 mps 759 mmHg 59%
    18:00 +19°C° 0 mm 6 mps 759 mmHg 65%
    19:00 +19°C° 0 mm 6 mps 759 mmHg 66%
    20:00 +17°C° 0 mm 6 mps 759 mmHg 68%
    21:00 +17°C° 0 mm 6 mps 759 mmHg 70%
    22:00 +17°C° 0 mm 6 mps 759 mmHg 70%
    23:00 +17°C° 0 mm 6 mps 759 mmHg 70%

    Tomorrow, 15 November, Thursday

    Time Temperature Precipitation Wind Pressure Humidity
    00:00 +16°C° 0 mm 6 mps 758 mmHg 71%
    01:00 +16°C° 0 mm 6 mps 758 mmHg 71%
    02:00 +16°C° 0 mm 6 mps 758 mmHg 72%
    03:00 +16°C° 0 mm 5 mps 758 mmHg 72%
    04:00 +15°C° 0 mm 5 mps 758 mmHg 75%
    05:00 +15°C° 0 mm 5 mps 758 mmHg 77%
    06:00 +15°C° 0 mm 4 mps 758 mmHg 79%
    07:00 +17°C° 0 mm 4 mps 758 mmHg 76%
    08:00 +17°C° 0 mm 4 mps 759 mmHg 73%
    09:00 +18°C° 0 mm 4 mps 759 mmHg 71%
    10:00 +20°C° 0 mm 4 mps 759 mmHg 66%
    11:00 +21°C° 0 mm 4 mps 759 mmHg 61%
    12:00 +22°C° 0 mm 4 mps 759 mmHg 57%
    13:00 +22°C° 0.1 mm 4 mps 759 mmHg 57%
    14:00 +22°C° 0.1 mm 4 mps 759 mmHg 56%
    15:00 +22°C° 0.1 mm 3 mps 759 mmHg 56%
    16:00 +21°C° 0 mm 4 mps 759 mmHg 61%
    17:00 +20°C° 0 mm 4 mps 759 mmHg 66%
    18:00 +19°C° 0 mm 4 mps 759 mmHg 72%
    19:00 +18°C° 0 mm 4 mps 759 mmHg 73%
    20:00 +18°C° 0 mm 4 mps 760 mmHg 75%
    21:00 +16°C° 0 mm 5 mps 760 mmHg 76%
    22:00 +16°C° 0 mm 5 mps 760 mmHg 77%
    23:00 +16°C° 0 mm 5 mps 760 mmHg 78%

    Day after tomorrow, 16 November, Friday

    Time Temperature Precipitation Wind Pressure Humidity
    00:00 +16°C° 0 mm 5 mps 760 mmHg 79%
    01:00 +16°C° 0 mm 5 mps 760 mmHg 79%
    02:00 +15°C° 0 mm 5 mps 760 mmHg 79%
    03:00 +15°C° 0 mm 5 mps 760 mmHg 79%
    04:00 +15°C° 0 mm 5 mps 759 mmHg 79%
    05:00 +15°C° 0 mm 5 mps 759 mmHg 78%
    06:00 +15°C° 0 mm 5 mps 759 mmHg 78%
    07:00 +16°C° 0 mm 6 mps 759 mmHg 75%
    08:00 +16°C° 0 mm 6 mps 759 mmHg 72%
    09:00 +17°C° 0 mm 6 mps 760 mmHg 68%
    10:00 +20°C° 0 mm 6 mps 759 mmHg 63%
    11:00 +21°C° 0 mm 6 mps 759 mmHg 58%
    12:00 +22°C° 0 mm 6 mps 759 mmHg 53%
    13:00 +22°C° 0.1 mm 6 mps 759 mmHg 53%
    14:00 +22°C° 0.1 mm 6 mps 758 mmHg 53%
    15:00 +22°C° 0.1 mm 5 mps 758 mmHg 53%
    16:00 +21°C° 0.1 mm 5 mps 758 mmHg 58%
    17:00 +20°C° 0.1 mm 5 mps 758 mmHg 63%
    18:00 +19°C° 0.1 mm 5 mps 758 mmHg 68%
    19:00 +17°C° 0 mm 5 mps 759 mmHg 71%
    20:00 +17°C° 0 mm 5 mps 759 mmHg 73%
    21:00 +16°C° 0 mm 5 mps 760 mmHg 75%
    22:00 +17°C° 0 mm 4 mps 760 mmHg 77%
    23:00 +17°C° 0 mm 4 mps 760 mmHg 78%

    17 November, Saturday

    Time Temperature Precipitation Wind Pressure Humidity
    00:00 +15°C° 0 mm 4 mps 760 mmHg 80%
    01:00 +15°C° 0.1 mm 4 mps 760 mmHg 82%
    02:00 +15°C° 0.1 mm 4 mps 759 mmHg 83%
    03:00 +16°C° 0.1 mm 3 mps 759 mmHg 85%
    04:00 +14°C° 0 mm 4 mps 759 mmHg 85%
    05:00 +14°C° 0 mm 4 mps 759 mmHg 85%
    06:00 +14°C° 0 mm 4 mps 759 mmHg 85%
    07:00 +15°C° 0 mm 4 mps 759 mmHg 81%
    08:00 +17°C° 0 mm 4 mps 759 mmHg 78%
    09:00 +18°C° 0 mm 4 mps 760 mmHg 74%
    10:00 +19°C° 0 mm 4 mps 759 mmHg 71%
    11:00 +20°C° 0 mm 5 mps 759 mmHg 67%
    12:00 +21°C° 0 mm 5 mps 759 mmHg 63%
    13:00 +21°C° 0 mm 5 mps 758 mmHg 63%
    14:00 +21°C° 0 mm 6 mps 758 mmHg 62%
    15:00 +21°C° 0 mm 6 mps 757 mmHg 62%
    16:00 +20°C° 0 mm 7 mps 757 mmHg 65%
    17:00 +18°C° 0 mm 7 mps 757 mmHg 68%
    18:00 +17°C° 0 mm 8 mps 757 mmHg 72%
    19:00 +17°C° 0 mm 8 mps 756 mmHg 72%
    20:00 +17°C° 0 mm 9 mps 756 mmHg 73%
    21:00 +17°C° 0 mm 9 mps 756 mmHg 74%
    22:00 +17°C° 0 mm 9 mps 756 mmHg 74%
    23:00 +17°C° 0 mm 10 mps 755 mmHg 74%

    18 November, Sunday

    Time Temperature Precipitation Wind Pressure Humidity
    00:00 +17°C° 0 mm 10 mps 755 mmHg 74%
    01:00 +17°C° 0.1 mm 10 mps 754 mmHg 74%
    02:00 +17°C° 0.1 mm 10 mps 754 mmHg 74%
    03:00 +17°C° 0.1 mm 10 mps 754 mmHg 74%
    04:00 +17°C° 0.6 mm 10 mps 753 mmHg 74%
    05:00 +16°C° 0.6 mm 10 mps 753 mmHg 75%
    06:00 +16°C° 0.6 mm 10 mps 753 mmHg 75%
    07:00 +16°C° 1.5 mm 9 mps 753 mmHg 77%
    08:00 +16°C° 1.5 mm 9 mps 753 mmHg 79%
    09:00 +16°C° 1.5 mm 9 mps 753 mmHg 81%
    10:00 +16°C° 1.3 mm 9 mps 753 mmHg 80%
    11:00 +16°C° 1.3 mm 8 mps 753 mmHg 80%
    12:00 +17°C° 1.3 mm 8 mps 753 mmHg 80%
    13:00 +16°C° 1.1 mm 7 mps 753 mmHg 80%
    14:00 +16°C° 1.1 mm 7 mps 752 mmHg 80%
    15:00 +16°C° 1.1 mm 7 mps 752 mmHg 80%
    16:00 +16°C° 1.2 mm 7 mps 752 mmHg 81%
    17:00 +15°C° 1.2 mm 7 mps 752 mmHg 82%
    18:00 +15°C° 1.2 mm 7 mps 752 mmHg 83%
    19:00 +15°C° 0.6 mm 7 mps 752 mmHg 83%
    20:00 +15°C° 0.6 mm 7 mps 752 mmHg 84%
    21:00 +15°C° 0.6 mm 7 mps 753 mmHg 84%
    22:00 +14°C° 0.4 mm 7 mps 752 mmHg 84%
    23:00 +14°C° 0.4 mm 7 mps 752 mmHg 85%

    19 November, Monday

    Time Temperature Precipitation Wind Pressure Humidity
    00:00 +14°C° 0.4 mm 7 mps 752 mmHg 85%
    01:00 +14°C° 0.6 mm 7 mps 752 mmHg 85%
    02:00 +12°C° 0.6 mm 7 mps 751 mmHg 84%
    03:00 +12°C° 0.6 mm 8 mps 751 mmHg 84%
    04:00 +12°C° 0.7 mm 7 mps 751 mmHg 84%
    05:00 +12°C° 0.7 mm 7 mps 751 mmHg 84%
    06:00 +12°C° 0.7 mm 7 mps 751 mmHg 84%
    07:00 +14°C° 0.7 mm 7 mps 751 mmHg 83%
    08:00 +14°C° 0.7 mm 7 mps 752 mmHg 82%
    09:00 +14°C° 0.7 mm 6 mps 752 mmHg 81%
    10:00 +15°C° 0.8 mm 6 mps 752 mmHg 80%
    11:00 +15°C° 0.8 mm 6 mps 752 mmHg 78%
    12:00 +16°C° 0.8 mm 5 mps 752 mmHg 76%
    13:00 +16°C° 0.8 mm 5 mps 752 mmHg 76%
    14:00 +16°C° 0.8 mm 5 mps 752 mmHg 76%
    15:00 +16°C° 0.8 mm 5 mps 752 mmHg 75%
    16:00 +16°C° 0.7 mm 5 mps 752 mmHg 79%
    17:00 +15°C° 0.7 mm 5 mps 752 mmHg 82%
    18:00 +15°C° 0.7 mm 5 mps 753 mmHg 85%
    19:00 +14°C° 0.8 mm 6 mps 753 mmHg 85%
    20:00 +14°C° 0.8 mm 6 mps 754 mmHg 85%
    21:00 +14°C° 0.8 mm 6 mps 754 mmHg 85%
    22:00 +14°C° 0.5 mm 6 mps 754 mmHg 85%
    23:00 +14°C° 0.5 mm 6 mps 754 mmHg 86%
    Show more